Weather in Naydenovka

Russia / Stavropol Krai     45°20′02″N   41°48′12″E
temp.,
°C
wind,
m/s
gust,
m/s
humid.,
%
clouds,
%
prec.,
mm/h
press.,
hPa
HPBL,
m
27 january, wed
wed2700:00+5se61273100 0.0 1018201
03:00+5se61068100 0.0 1016140
06:00+5se71161100 0.0 1015154
09:00+5se71460100 0.0 1013221
12:00+8se71454100 0.0 1012317
15:00+8ese71256100 0.0 1009356
18:00+4se71477100 0.0 1009314
21:00+3se51081100 0.0 1008255
28 january, thu
thu2800:00+3se3483100 0.0 100781
03:00+3ese3379100 0.0 100538
06:00+3se3476100 0.0 100470
09:00+4ese2273100 0.0 100431
12:00+8w125664 0.0 1004213
15:00+7wnw7137581 0.0 1005736
18:00+6wnw51293100 0.1 1008762
21:00+4w6139099 0.2 1010797
29 january, fri
fri2900:00+2w279472 0.1 1012298
03:00+2w288586 0.1 1013515
06:00+1sse2386100 0.0 101357
09:00+2s3481100 0.0 1014115
12:00+2sse4692100 0.2 1013349
15:00+4sse347099 0.2 1013618
18:00+3s2379100 0.0 101471
21:00+1nw019385 0.0 101522
30 january, sat
sat3000:00+1ese129047 0.0 101522
03:00+1se338250 0.0 101464
06:000sse238232 0.0 101450
09:00+2sse247632 0.0 1014130
12:00+6se355927 0.0 1012418
15:00+7se476114 0.0 1010527
18:00+3se6137924 0.0 1010379
21:00+2se8148215 0.0 1008327
31 january, sun
sun3100:00+2se7128139 0.0 1007226
03:00+2se588570 0.0 1005138
06:00+1sse237583 0.0 100628
09:00+3se116592 0.0 100822
12:00+7s2356100 0.0 1009226
15:00+9wsw3756100 0.0 1011644
18:00+6s3364100 0.0 101361
21:00+5s3462100 0.0 101566